Location: Brede
(50.9167°N, 0.6000°E)
Time: 16:53:17
(UTC+00:00)

Lacrosse 5 - Pass Details

Date: 08 August 2020
Orbit: 716 x 722 km, 57.0° (Epoch: 21 September)

Event Time Altitude Azimuth Distance (km) Brightness Sun altitude
Rises 00:11:37 0° 296° (WNW) 3,135 5.5 -23.0°
Reaches altitude 10° 00:14:39 10° 278° (W) 2,211 4.4 -23.0°
Enters shadow 00:16:27 16° 259° (W) 1,833 3.8 -23.0°
